Glasgow, MT

5:30 AM MST on February 12, 2016 (GMT -0700)
Wokal-Glasgow International

Weather History for KGGW - March, 2013

Change the Weather History Date:

Monday, March 4, 2013

  Actual Average Record
Temperature  
Mean Temperature 16 °F 26 °F  
Max Temperature 26 °F 36 °F 66 °F (1987)
Min Temperature 6 °F 16 °F -28 °F (1917)
Degree Days  
Heating Degree Days 49 39  
Month to date heating degree days 135 160  
Since 1 July heating degree days 6342 6530  
Cooling Degree Days 0 0  
Month to date cooling degree days 0 0  
Year to date cooling degree days 0 0  
Moisture  
Dew Point 14 °F    
Average Humidity 77    
Maximum Humidity 92    
Minimum Humidity 62    
Precipitation  
Precipitation 0.19 in 0.01 in 0.20 in (1897)
Month to date precipitation 0.22 0.04  
Year to date precipitation 0.88 0.67  
Snow  
Snow 3.50 in 0.20 in 3.50 in (2013)
Month to date snowfall 3.5 0.7  
Since 1 July snowfall 40.8 27.7  
Snow Depth 3.00 in    
Sea Level Pressure  
Sea Level Pressure 30.09 in    
Wind  
Wind Speed 21 mph (North)    
Max Wind Speed 30 mph    
Max Gust Speed 44 mph    
Visibility 5 miles    
Events Fog , Snow    
T = Trace of Precipitation, MM = Missing Value Source: NWS Daily Summary

Daily Weather History Graph

Daily Weather History Graph

Search for Another Location

Airport or City:

Trip Planner

Search our weather history database for the weather conditions in past years. The results will help you decide how hot, cold, wet, or windy it might be!

Date:

Astronomy

Mar. 04, 2013 Rise Set
Actual Time 6:41 AM MST 5:55 PM MST
Civil Twilight 6:09 AM MST 6:26 PM MST
Nautical Twilight 5:34 AM MST 7:03 PM MST
Astronomical Twilight 4:57 AM MST 7:39 PM MST
Moon 1:13 AM MST (3/4) 10:19 AM MST (3/4)
Length of Visible Light 12h 16m
Length of Day
11h 14m
Waning Gibbous, 51% of the Moon is Illuminated
Mar 4
Waning Gibbous
Mar 4
Last Quarter
Mar 11
New
Mar 19
First Quarter
Mar 27
Full

Hourly Weather History & Observations

Time (MST) Temp. Windchill Dew Point Humidity Pressure Visibility Wind Dir Wind Speed Gust Speed Precip Events Conditions
12:01 AM 26.6 °F 13.8 °F 23.0 °F 86% 29.67 in 1.5 mi NNE 17.3 mph - 0.00 in Snow Light Snow
12:11 AM 26.6 °F 14.3 °F 23.0 °F 86% 29.68 in 1.0 mi NNE 16.1 mph - 0.00 in Snow Light Snow
12:31 AM 24.8 °F 11.5 °F 23.0 °F 93% 29.69 in 1.0 mi NNE 17.3 mph - 0.01 in Snow Light Snow
12:53 AM 25.0 °F 12.2 °F 21.9 °F 88% 29.78 in 1.2 mi NNE 16.1 mph - 0.01 in Snow Light Snow
1:03 AM 24.8 °F 11.1 °F 21.2 °F 86% 29.71 in 1.5 mi NNE 18.4 mph - 0.00 in Snow Light Snow
1:12 AM 24.8 °F 10.7 °F 21.2 °F 86% 29.72 in 1.0 mi NNE 19.6 mph 27.6 mph 0.01 in Snow Light Snow
1:39 AM 24.8 °F 12.9 °F 21.2 °F 86% 29.74 in 1.0 mi North 13.8 mph - 0.01 in Snow Light Snow
1:51 AM 24.8 °F 11.5 °F 21.2 °F 86% 29.75 in 0.8 mi NNE 17.3 mph 23.0 mph N/A Snow Light Snow
1:53 AM 24.1 °F 12.0 °F 21.0 °F 88% 29.83 in 0.8 mi NNE 13.8 mph 23.0 mph 0.02 in Snow Light Snow
2:21 AM 24.8 °F 12.4 °F 21.2 °F 86% 29.77 in 0.8 mi North 15.0 mph - 0.02 in Snow Light Snow
2:53 AM 21.9 °F 5.5 °F 19.0 °F 89% 29.88 in 0.5 mi North 24.2 mph - 0.02 in Fog , Snow Snow
3:03 AM 21.2 °F 4.2 °F 17.6 °F 86% 29.80 in 1.0 mi North 25.3 mph 34.5 mph 0.01 in   Mist
3:12 AM 21.2 °F 5.2 °F 17.6 °F 86% 29.81 in 0.8 mi North 21.9 mph 34.5 mph 0.01 in Snow Light Snow
3:21 AM 21.2 °F 4.5 °F 17.6 °F 86% 29.82 in 0.5 mi North 24.2 mph 32.2 mph 0.01 in Fog Light Freezing Fog
3:45 AM 19.4 °F 1.8 °F 17.6 °F 93% 29.83 in 0.8 mi North 25.3 mph 34.5 mph 0.03 in   Mist
3:53 AM 19.9 °F 3.2 °F 17.1 °F 89% 29.93 in 0.8 mi North 23.0 mph 39.1 mph 0.03 in   Mist
4:08 AM 19.4 °F 1.8 °F 17.6 °F 93% 29.85 in 1.0 mi North 25.3 mph 31.1 mph N/A   Mist
4:36 AM 19.4 °F 1.8 °F 17.6 °F 93% 29.87 in 0.8 mi North 25.3 mph 34.5 mph 0.01 in   Mist
4:53 AM 19.9 °F 1.8 °F 17.1 °F 89% 29.97 in 1.0 mi North 27.6 mph 38.0 mph 0.01 in   Mist
5:09 AM 19.4 °F 1.4 °F 15.8 °F 86% 29.89 in 1.0 mi North 26.5 mph 39.1 mph N/A   Mist
5:53 AM 19.9 °F 1.5 °F 16.0 °F 85% 30.02 in 1.0 mi North 28.8 mph 36.8 mph 0.01 in   Mist
6:05 AM 19.4 °F 0.5 °F 15.8 °F 86% 29.95 in 0.8 mi North 29.9 mph 36.8 mph N/A   Mist
6:33 AM 19.4 °F 1.8 °F 17.6 °F 93% 29.97 in 0.5 mi North 25.3 mph 34.5 mph 0.01 in Fog Light Freezing Fog
6:53 AM 19.9 °F 2.8 °F 16.0 °F 85% 30.07 in 0.8 mi North 24.2 mph 35.7 mph 0.02 in   Mist
7:13 AM 19.4 °F 1.1 °F 15.8 °F 86% 29.99 in 0.8 mi North 27.6 mph 40.3 mph 0.01 in   Mist
7:53 AM 19.0 °F 0.0 °F 15.1 °F 85% 30.12 in 0.8 mi North 29.9 mph 40.3 mph 0.01 in   Overcast
8:06 AM 19.4 °F 2.1 °F 14.0 °F 80% 30.04 in 1.5 mi North 24.2 mph 35.7 mph N/A   Haze
8:22 AM 19.4 °F 1.8 °F 14.0 °F 80% 30.05 in 1.2 mi North 25.3 mph 36.8 mph N/A   Haze
8:27 AM 19.4 °F 2.8 °F 14.0 °F 80% 30.05 in 2.0 mi North 21.9 mph 33.4 mph N/A   Haze
8:53 AM 19.0 °F 1.0 °F 12.9 °F 77% 30.17 in 3.0 mi North 26.5 mph 34.5 mph N/A   Haze
9:02 AM 17.6 °F -2.5 °F 12.2 °F 79% 30.07 in 2.5 mi North 32.2 mph 39.1 mph N/A   Haze
9:24 AM 17.6 °F -1.3 °F 12.2 °F 79% 30.09 in 5.0 mi North 27.6 mph 38.0 mph N/A   Haze
9:53 AM 18.0 °F -0.5 °F 12.0 °F 78% 30.21 in 9.0 mi North 26.5 mph 34.5 mph N/A   Overcast
10:53 AM 18.0 °F -0.8 °F 12.0 °F 78% 30.24 in 4.0 mi North 27.6 mph 39.1 mph N/A   Haze
11:53 AM 19.9 °F 2.2 °F 12.0 °F 71% 30.27 in 10.0 mi North 26.5 mph 39.1 mph N/A   Overcast
12:17 PM 19.4 °F 2.1 °F 12.2 °F 74% 30.17 in 10.0 mi NNW 24.2 mph 33.4 mph N/A   Overcast
12:41 PM 21.2 °F 3.9 °F 12.2 °F 68% 30.17 in 10.0 mi NNW 26.5 mph 35.7 mph N/A   Scattered Clouds
12:53 PM 21.0 °F 3.9 °F 10.9 °F 65% 30.30 in 10.0 mi NNW 25.3 mph 33.4 mph N/A   Partly Cloudy
1:12 PM 19.4 °F 0.8 °F 10.4 °F 68% 30.19 in 10.0 mi NNW 28.8 mph 36.8 mph N/A   Mostly Cloudy
1:53 PM 19.9 °F 1.8 °F 10.9 °F 68% 30.32 in 10.0 mi NNW 27.6 mph - N/A   Mostly Cloudy
2:53 PM 19.9 °F 2.2 °F 10.9 °F 68% 30.35 in 10.0 mi NNW 26.5 mph 35.7 mph N/A   Overcast
3:53 PM 19.9 °F 2.5 °F 10.9 °F 68% 30.38 in 10.0 mi NW 25.3 mph 29.9 mph N/A   Mostly Cloudy
4:53 PM 17.1 °F 0.6 °F 9.0 °F 71% 30.42 in 10.0 mi NW 19.6 mph - 0.00 in   Overcast
5:36 PM 15.8 °F -1.1 °F 8.6 °F 73% 30.31 in 10.0 mi NNW 19.6 mph - N/A   Partly Cloudy
5:53 PM 15.1 °F -2.0 °F 9.0 °F 77% 30.46 in 10.0 mi NW 19.6 mph - N/A   Clear
6:12 PM 14.0 °F 0.5 °F 8.6 °F 79% 30.33 in 10.0 mi NW 11.5 mph - N/A   Mostly Cloudy
6:20 PM 12.2 °F -2.5 °F 8.6 °F 85% 30.33 in 10.0 mi NW 12.7 mph - N/A   Mostly Cloudy
6:34 PM 12.2 °F -3.7 °F 8.6 °F 85% 30.33 in 10.0 mi NNW 15.0 mph - N/A   Scattered Clouds
6:53 PM 12.9 °F -2.8 °F 8.1 °F 81% 30.48 in 10.0 mi NW 15.0 mph - N/A   Clear
7:53 PM 10.9 °F -3.4 °F 7.0 °F 84% 30.48 in 10.0 mi NNW 11.5 mph - N/A   Clear
8:53 PM 9.0 °F -2.2 °F 5.0 °F 84% 30.50 in 10.0 mi WNW 6.9 mph - N/A   Clear
9:53 PM 7.0 °F -6.6 °F 3.9 °F 87% 30.51 in 10.0 mi NW 9.2 mph - N/A   Clear
10:53 PM 7.0 °F -3.3 °F 3.9 °F 87% 30.52 in 10.0 mi NNW 5.8 mph - N/A   Clear